Regional Weather Roundup
Issued by NWS Huntsville, AL

Home | Current Version | Previous Version | Text Only | Print | Product List | Glossary On
Versions: 1 2 3 4 5 6 7 8 9 10 11 12 13 14 15 16 17 18 19 20 21 22 23 24 25 26 27 28 29 30 31 32 33 34 35 36 37 38 39 40 41 42 43 44 45 46 47 48 49 50
000
ASUS44 KHUN 161710
RWRHUN

WEATHER ROUNDUP FOR THE TENNESSEE VALLEY
NATIONAL WEATHER SERVICE HUNTSVILLE AL
1200 PM CDT WED AUG 16 2017

ALZ001>004-161800-
NORTHWEST ALABAMA

CITY           SKY/WX    TMP DP  RH WIND       PRES   REMARKS
SHOALS AIRPORT SUNNY     87  75  67 SW6       30.08F HX  96
$$

ALZ005>007-016-161800-
NORTH CENTRAL ALABAMA

CITY           SKY/WX    TMP DP  RH WIND       PRES   REMARKS
DECATUR AP     CLOUDY    82  76  81 SE3       30.09F
HUNTSVILLE AP  PTSUNNY   83  76  79 W5        30.09F HX  91
MERIDIANVILLE  CLOUDY    79  70  73 CALM      30.10F
REDSTONE ARSN  CLOUDY    82  75  80 S3        30.08F
VINEMONT AP    PTSUNNY   83  72  69 CALM      30.13S
$$

ALZ008>010-161800-
NORTHEAST ALABAMA

CITY           SKY/WX    TMP DP  RH WIND       PRES   REMARKS
ALBERTVILLE    PTSUNNY   81  79  94 W6        30.11F
FORT PAYNE     PTSUNNY   81  70  69 SW7       30.10F
SCOTTSBORO AP  PTSUNNY   82  75  78 SW7       30.10F
SCOTTSBORO HCN   N/A     81 N/A N/A MISG        N/A
VALLEY HEAD      N/A     81 N/A N/A MISG        N/A
$$

TNZ076-096-097-161800-
SOUTHEASTERN MIDDLE TENNESSEE

CITY           SKY/WX    TMP DP  RH WIND       PRES   REMARKS
TULLAHOMA      PTSUNNY   81  72  74 SW5       30.11F
WINCHESTER     MOSUNNY   84  73  70 SW8       30.09F HX  91
$$

...SURROUNDING SITES...

CITY           SKY/WX    TMP DP  RH WIND       PRES   REMARKS
ATLANTA        MOSUNNY   88  73  61 NW9       30.09F HX  95
ANNISTON       MOSUNNY   84  73  69 VRB5      30.10F HX  90
BIRMINGHAM     MOSUNNY   87  72  60 W9        30.12S HX  93
CHATTANOOGA    MOSUNNY   87  73  62 VRB6      30.07F HX  94
CORINTH        CLOUDY    84  73  70 VRB6      30.05F HX  91
DALTON         NOT AVBL
GADSDEN        CLOUDY    83  75  77 VRB6      30.10F HX  90
GOLDEN TRNGL   PTSUNNY   84  72  65 CALM      30.04
HALEYVILLE     PTSUNNY   85  77  77 SW9       30.12F HX  95
JACKSON TN     MOSUNNY   85  78  80 S8        30.03F HX  96
MEMPHIS        CLOUDY    81  77  88 S10       30.03F
NASHVILLE      PTSUNNY   84  76  76 S7        30.07F HX  93
OXFORD MS        N/A    N/A N/A N/A MISG        N/A
ROME           MOSUNNY   86  77  74 SW8       30.08F HX  97
SAVANNAH       PTSUNNY   84  77  79 S5        30.04F HX  94
SELMER         CLOUDY    82  75  78 SW7       30.05F
TUPELO         CLOUDY    82  74  76 S9        30.07F
TUSCALOOSA     MOSUNNY   83  76  79 MISG      30.09F HX  91
$$

...GULF COAST WEATHER...

CITY           SKY/WX    TMP DP  RH WIND       PRES   REMARKS
GULFPORT       MOSUNNY   90  78  68 S7        30.06F HX 104
PASCAGOULA     MOSUNNY   93  77  59 VRB3      30.07F HX 107
MOBILE         CLOUDY    88  75  65 VRB3      30.09F HX  97
GULF SHORES    CLOUDY    87  78  74 W9        30.08F HX  99
PENSACOLA      MOSUNNY   90  77  65 SW12      30.08F HX 103
DESTIN         SUNNY     90  76  63 SW5       30.09F HX 101
PANAMA CITY    SUNNY     90  76  64 W8        30.09F HX 102
APPALACHICOLA  PTSUNNY   88  78  72 SW3       30.09F HX 101
$$




USA.gov is the U.S. government's official web portal to all federal, state and local government web resources and services.